• Join FlightAware (Why Join?)
  • Login
  • US Flag 
03:26PM EDT


 

Airport Tracker/Info


-or-


 

Live Flight TrackerFlight Track Log ✈ EJA922 ✈ 19-Aug-2013 ✈ KSLC - KBZN

Flight Track Log - Related Links

Times and Time Zones

All times are in EDT time to prevent confusion due to time zone crossing. See the EJA922 flight status page for this flight to view local times or setup timezone preferences in your user account.

Time Position Orientation Groundspeed Altitude Reporting Facility
EDT Latitude Longitude Course Direction KTS MPH feet Rate Location/Type
12:47PM 40.7692 -111.9617 221° Southwest 176 203 5,000  Level Salt Lake Center
12:47PM 40.7425 -111.9928 221° Southwest 209 241 6,600 2,160 Climbing Salt Lake Center
12:49PM 40.7886 -112.0792 305° West 269 310 9,500 1,920 Climbing Salt Lake Center
12:50PM 40.8700 -112.0819 359° North 308 354 11,400 1,620 Climbing Salt Lake Center
12:51PM 40.9669 -112.0636 North 355 409 12,900 1,440 Climbing Salt Lake Center
12:52PM 41.0761 -112.0439 North 387 445 14,400 1,500 Climbing Salt Lake Center
12:53PM 41.1914 -112.0236 North 412 474 16,000 1,620 Climbing Salt Lake Center
12:54PM 41.3336 -111.9983 North 425 489 17,800 1,800 Climbing Salt Lake Center
12:55PM 41.4522 -111.9778 North 428 493 19,800 1,920 Climbing Salt Lake Center
12:56PM 41.5689 -111.9561 North 423 487 21,800 1,680 Climbing Salt Lake Center
12:57PM 41.6883 -111.9353 North 433 498 23,300 1,440 Climbing Salt Lake Center
12:58PM 41.8100 -111.9139 North 442 509 24,800 1,440 Climbing Salt Lake Center
12:59PM 41.9331 -111.8919 North 445 512 26,300 1,560 Climbing Salt Lake Center
01:00PM 42.0839 -111.8644 North 454 522 28,100 1,500 Climbing Salt Lake Center
01:01PM 42.2106 -111.8425 North 457 526 29,500 900 Climbing Salt Lake Center
01:02PM 42.3419 -111.8172 North 474 545 30,000 240 Climbing Salt Lake Center
01:03PM 42.4797 -111.7928 North 496 571 30,000  Level Salt Lake Center
01:04PM 42.6172 -111.7658 North 500 575 30,000  Level Salt Lake Center
01:05PM 42.7592 -111.7406 North 501 577 30,000  Level Salt Lake Center
01:06PM 42.9128 -111.7114 North 498 573 30,000  Level Salt Lake Center
01:07PM 43.0417 -111.6886 North 489 563 30,000  Level Salt Lake Center
01:08PM 43.1914 -111.6603 North 485 558 30,000  Level Salt Lake Center
01:09PM 43.3200 -111.6361 North 486 559 30,000  Level Salt Lake Center
01:10PM 43.4686 -111.6083 North 484 557 30,000  Level Salt Lake Center
01:11PM 43.5958 -111.5844 North 482 555 30,000  Level Salt Lake Center
01:12PM 43.7453 -111.5567 North 483 556 30,000  Level Salt Lake Center
01:13PM 43.8728 -111.5322 North 484 557 30,000  Level Salt Lake Center
01:15PM 44.0225 -111.5028 North 487 560 30,000  Level Salt Lake Center
01:16PM 44.1519 -111.4778 North 489 563 30,000  Level Salt Lake Center
01:17PM 44.3014 -111.4475 North 487 560 30,000 -360 Level Salt Lake Center
01:18PM 44.4294 -111.4219 North 487 560 29,300 -1,620 Descending Salt Lake Center
01:19PM 44.5842 -111.3914 North 534 615 26,700 -2,280 Descending Salt Lake Center
01:20PM 44.7147 -111.3664 North 513 590 24,600 -2,280 Descending Salt Lake Center
01:21PM 44.8614 -111.3372 North 481 554 22,100 -2,220 Descending Salt Lake Center
01:22PM 44.9833 -111.3128 North 469 540 20,100 -2,040 Descending Salt Lake Center
01:23PM 45.1192 -111.2853 North 448 516 17,900 -2,160 Descending Salt Lake Center
01:24PM 45.2497 -111.2586 North 439 505 15,700 -1,920 Descending Salt Lake Center
01:25PM 45.3706 -111.2344 North 440 506 14,000 -840 Descending Salt Lake Center
01:26PM 45.4753 -111.2131 North 381 438 14,000 -660 Level Salt Lake Center
01:27PM 45.5706 -111.1939 North 349 402 12,700 -1,500 Descending Salt Lake Center
01:28PM 45.6619 -111.1753 North 339 390 11,000 -1,200 Descending Salt Lake Center
01:29PM 45.7392 -111.1597 North 303 349 10,300 -1,200 Descending Salt Lake Center
01:30PM 45.8175 -111.1467 North 276 318 8,600 -1,620 Descending Salt Lake Center
01:31PM 45.8583 -111.2036 316° Northwest 241 277 7,000 -1,680 Descending Salt Lake Center
01:32PM 45.8194 -111.2106 187° South 201 231 5,200 -1,260 Descending Salt Lake Center
01:33PM 45.7858 -111.1647 136° Southeast 157 181 4,500 -720 Descending Salt Lake Center